Location: A�t �Alizem
(31.2076°N, 8.7872°W)
Time: 11:18:18
(UTC+00:00)

deb Explorer IX - Pass Details

Date: 25 June 2021
Orbit: 541 x 1234 km, 38.9° (Epoch: 29 July)

Event Time Altitude Azimuth Distance (km) Brightness Sun altitude
Exits shadow 00:27:11 18° 52° (NE) 1,823 ? -35.3°
Drops below altitude 10° 00:28:48 10° 60° (ENE) 2,387 ? -35.4°
Sets 00:31:42 0° 67° (ENE) 3,450 ? -35.4°
